Location: Bun Machan
(52.1403°N, 7.3744°W)
Time: 18:10:45
(UTC+00:00)

X-37B - Pass Details

Date: 26 June 2021
Orbit: 383 x 392 km, 45.0° (Epoch: 01 July)

Event Time Altitude Azimuth Distance (km) Brightness Sun altitude
Rises 22:21:29 0° 246° (WSW) 2,255 4.5 -9.3°
Reaches altitude 10° 22:23:48 10° 230° (SW) 1,402 3.3 -9.5°
Maximum altitude 22:26:20 22° 177° (S) 891 1.9 -9.7°
Enters shadow 22:28:10 14° 132° (SE) 1,187 2.4 -9.8°
